Worcester, MA

1:37 AM EDT on August 30, 2016 (GMT -0400)
Worcester Regional

Weather History for KORH - October, 2010

Change the Weather History Date:

Friday, October 15, 2010

  Actual Average Record
Temperature  
Mean Temperature 44 °F 50 °F  
Max Temperature 48 °F 59 °F 85 °F (1956)
Min Temperature 39 °F 42 °F 28 °F (1928)
Degree Days  
Heating Degree Days 21 15  
Month to date heating degree days 194 188  
Since 1 July heating degree days 319 381  
Cooling Degree Days 0 0  
Month to date cooling degree days 0 0  
Year to date cooling degree days 728 468  
Moisture  
Dew Point -    
Average Humidity 93    
Maximum Humidity 100    
Minimum Humidity 85    
Precipitation  
Precipitation 1.28 in 0.16 in 3.49 in (1955)
Month to date precipitation 5.76 2.36  
Year to date precipitation 41.54 37.65  
Snow  
Snow 0.00 in 0.00 in 0.90 in (1961)
Month to date snowfall 0.0 0.0  
Since 1 July snowfall 0.0 0.0  
Since 1 September snowfall 0.0 0.0  
Snow Depth 0.00 in    
Wind  
Wind Speed 19 mph (North)    
Max Wind Speed 32 mph    
Max Gust Speed 46 mph    
T = Trace of Precipitation, MM = Missing Value Source: NWS Daily Summary

Daily Weather History Graph

Daily Weather History Graph

Search for Another Location

Airport or City:

Trip Planner

Search our weather history database for the weather conditions in past years. The results will help you decide how hot, cold, wet, or windy it might be!

Date:

Astronomy

Oct. 15, 2010 Rise Set
Actual Time 7:00 AM EDT 6:05 PM EDT
Civil Twilight 6:31 AM EDT 6:33 PM EDT
Nautical Twilight 5:59 AM EDT 7:06 PM EDT
Astronomical Twilight 5:26 AM EDT 7:38 PM EDT
Moon 2:33 PM EDT (10/15) No Moon Set
Length of Visible Light 12h 01m
Length of Day
11h 05m
First Quarter, 57% of the Moon is Illuminated
Oct 15
First Quarter
Oct 22
Full
Oct 30
Last Quarter
Nov 6
New
Nov 13
First Quarter

Hourly Weather History & Observations

Time (EDT) Temp. Windchill Dew Point Humidity Pressure Visibility Wind Dir Wind Speed Gust Speed Precip Events Conditions
12:10 AM 48.2 °F - 48.2 °F 100% 29.67 in 3.0 mi NE 9.2 mph - 0.08 in Rain Heavy Rain
12:42 AM 48.2 °F - 48.2 °F 100% 29.61 in 1.8 mi NE 13.8 mph 23.0 mph 0.24 in Rain Heavy Rain
12:52 AM 48.2 °F - 48.2 °F 100% 29.61 in 3.0 mi NE 12.7 mph 24.2 mph 0.27 in Rain Rain
12:54 AM 48.0 °F - 48.0 °F 100% 29.62 in 4.0 mi NE 11.5 mph 24.2 mph 0.27 in Rain Rain
1:54 AM 46.9 °F - 46.9 °F 100% 29.55 in 4.0 mi NNE 13.8 mph 23.0 mph 0.05 in Rain Rain
2:54 AM 46.9 °F - 46.9 °F 100% 29.46 in 5.0 mi NNE 17.3 mph 25.3 mph 0.13 in Rain Rain
3:54 AM 46.9 °F - 46.9 °F 100% 29.40 in 3.0 mi North 16.1 mph 25.3 mph 0.21 in Rain Heavy Rain
4:16 AM 46.4 °F 40.1 °F 46.4 °F 100% 29.37 in 4.0 mi North 15.0 mph 21.9 mph 0.08 in Rain Heavy Rain
4:45 AM 46.4 °F 39.5 °F 46.4 °F 100% 29.35 in 2.5 mi NW 17.3 mph 26.5 mph 0.26 in Rain Heavy Rain
4:54 AM 46.9 °F - 46.0 °F 97% 29.36 in 2.5 mi NNW 15.0 mph 26.5 mph 0.33 in Rain Heavy Rain
5:06 AM 46.4 °F 39.8 °F 46.4 °F 100% 29.34 in 4.0 mi NW 16.1 mph 23.0 mph 0.06 in Rain Heavy Rain
5:30 AM 44.6 °F 35.7 °F 44.6 °F 100% 29.34 in 2.0 mi WNW 24.2 mph 34.5 mph 0.18 in Rain Heavy Rain
5:44 AM 44.6 °F 35.1 °F 42.8 °F 93% 29.29 in 4.0 mi NNW 27.6 mph 42.6 mph 0.21 in Rain Rain
5:54 AM 45.0 °F 36.0 °F 43.0 °F 93% 29.31 in 6.0 mi NW 25.3 mph 39.1 mph 0.24 in Rain Light Rain
6:01 AM 44.6 °F 35.5 °F 42.8 °F 93% 29.29 in 10.0 mi NW 25.3 mph 39.1 mph 0.01 in Rain Light Rain
6:54 AM 44.1 °F 34.8 °F 42.1 °F 93% 29.28 in 6.0 mi NW 25.3 mph 41.4 mph 0.01 in Rain Light Rain
7:27 AM 44.6 °F 35.7 °F 42.8 °F 93% 29.27 in 3.0 mi West 24.2 mph 33.4 mph 0.04 in Rain Rain
7:37 AM 44.6 °F 36.1 °F 42.8 °F 93% 29.27 in 3.0 mi West 21.9 mph 29.9 mph 0.07 in Rain Rain
7:54 AM 43.0 °F 33.8 °F 42.1 °F 97% 29.29 in 4.0 mi WNW 23.0 mph 34.5 mph 0.10 in Rain Rain
8:12 AM 42.8 °F 33.3 °F 41.0 °F 93% 29.27 in 4.0 mi WNW 24.2 mph 32.2 mph 0.02 in Rain Rain
8:30 AM 42.8 °F 33.8 °F 41.0 °F 93% 29.27 in 9.0 mi WNW 21.9 mph 32.2 mph 0.04 in Rain Light Rain
8:54 AM 42.1 °F 32.3 °F 39.9 °F 92% 29.28 in 7.0 mi West 24.2 mph 35.7 mph 0.06 in Rain Light Rain
9:54 AM 43.0 °F 34.0 °F 41.0 °F 93% 29.27 in 10.0 mi West 21.9 mph 35.7 mph 0.02 in Rain Light Rain
10:31 AM 44.6 °F 36.4 °F 41.0 °F 87% 29.25 in 10.0 mi West 20.7 mph 29.9 mph 0.01 in   Overcast
10:42 AM 44.6 °F 36.4 °F 42.8 °F 93% 29.25 in 10.0 mi West 20.7 mph 29.9 mph 0.01 in Rain Light Rain
10:54 AM 44.1 °F 37.1 °F 42.1 °F 93% 29.26 in 10.0 mi West 15.0 mph 26.5 mph 0.01 in Rain Light Rain
11:54 AM 45.0 °F 36.6 °F 42.1 °F 90% 29.25 in 10.0 mi West 21.9 mph 31.1 mph 0.00 in Rain Light Rain
12:17 PM 44.6 °F 37.4 °F 42.8 °F 93% 29.23 in 10.0 mi West 16.1 mph 33.4 mph 0.00 in Rain Light Rain
12:54 PM 46.0 °F 38.0 °F 42.1 °F 86% 29.24 in 10.0 mi West 21.9 mph 32.2 mph 0.00 in Rain Light Rain
1:01 PM 46.4 °F 39.8 °F 42.8 °F 87% 29.22 in 10.0 mi West 16.1 mph 26.5 mph 0.00 in Rain Light Rain
1:54 PM 46.0 °F 39.3 °F 44.1 °F 93% 29.21 in 7.0 mi West 16.1 mph 25.3 mph 0.01 in Rain Rain
2:08 PM 46.4 °F 40.4 °F 44.6 °F 93% 29.20 in 5.0 mi West 13.8 mph 19.6 mph 0.03 in Rain Rain
2:21 PM 44.6 °F 36.9 °F 42.8 °F 93% 29.20 in 3.0 mi West 18.4 mph 38.0 mph 0.06 in Rain Rain
2:54 PM 45.0 °F 37.4 °F 42.1 °F 90% 29.21 in 6.0 mi West 18.4 mph 36.8 mph 0.08 in Rain Rain
3:09 PM 46.4 °F 39.2 °F 42.8 °F 87% 29.20 in 10.0 mi West 18.4 mph 31.1 mph 0.01 in Rain Light Rain
3:18 PM 46.4 °F 38.5 °F 42.8 °F 87% 29.20 in 10.0 mi West 21.9 mph 34.5 mph 0.01 in Rain Light Rain
3:54 PM 45.0 °F 37.6 °F 42.1 °F 90% 29.21 in 10.0 mi West 17.3 mph 25.3 mph 0.01 in Rain Light Rain
4:54 PM 44.1 °F 36.5 °F 41.0 °F 89% 29.22 in 10.0 mi West 17.3 mph 25.3 mph 0.00 in Rain Light Rain
5:29 PM 42.8 °F 34.8 °F 41.0 °F 93% 29.20 in 10.0 mi West 17.3 mph 24.2 mph 0.01 in Rain Light Rain
5:54 PM 43.0 °F 35.4 °F 39.9 °F 89% 29.23 in 10.0 mi West 16.1 mph 24.2 mph 0.01 in Rain Light Rain
6:39 PM 42.8 °F 35.1 °F 39.2 °F 87% 29.23 in 10.0 mi West 16.1 mph 28.8 mph 0.00 in Rain Light Rain
6:54 PM 41.0 °F 33.1 °F 39.0 °F 93% 29.25 in 7.0 mi West 15.0 mph 29.9 mph 0.01 in Rain Light Rain
7:54 PM 41.0 °F 32.5 °F 39.0 °F 93% 29.27 in 10.0 mi West 17.3 mph 26.5 mph 0.00 in Rain Light Rain
8:54 PM 39.9 °F 31.8 °F 37.9 °F 93% 29.28 in 10.0 mi West 15.0 mph 23.0 mph 0.00 in   Overcast
9:54 PM 39.9 °F 30.2 °F 37.0 °F 89% 29.30 in 10.0 mi West 20.7 mph 26.5 mph 0.01 in   Overcast
10:26 PM 39.2 °F 29.8 °F 35.6 °F 87% 29.29 in 10.0 mi West 18.4 mph 28.8 mph 0.00 in Rain Light Rain
10:54 PM 39.9 °F 29.7 °F 36.0 °F 86% 29.33 in 10.0 mi West 23.0 mph 33.4 mph 0.00 in   Overcast
11:37 PM 39.2 °F 29.0 °F 35.6 °F 87% 29.32 in 10.0 mi WNW 21.9 mph 28.8 mph 0.00 in   Overcast
11:54 PM 39.9 °F 30.5 °F 35.1 °F 83% 29.34 in 10.0 mi WNW 19.6 mph 33.4 mph 0.00 in   Overcast